Temp
9 9 10 11 12 13 13 14 14 14 13 13 14 14 14 15 15 16 17 17 18 18 18 20 19 19 18 15 15 15 16 17 17 17 14 15 16 15 15 13 13 13 12 11 11 11 11
10 10 11 12 14 14 15 15 15 15 14 13 14 14 14 15 16 16 17 18 18 19 19 19 20 20 18 16 16 15 16 17 17 16 14 13 14 13 12 12 13 11 11 11 11 11 11
13 13 13 14 14 15 15 14 15 15 15 14 15 15 15 16 16 17 18 17 18 19 19 19 19 19 15 17 16 15 16 16 15 15 14 13 14 14 13 13 11 11 14 12 10 10 12
15 15 15 15 15 15 14 14 15 15 16 16 16 16 16 17 17 18 19 18 19 19 19 19 19 19 17 17 16 16 16 16 16 16 15 14 15 10 11 11 12 13 12 14 12 9 12
15 15 15 15 14 14 15 14 16 17 17 17 16 16 17 18 18 19 20 19 19 19 19 19 19 19 18 17 16 15 14 14 15 16 15 15 13 10 9 12 13 11 14 15 13 8 9
14 15 15 14 14 15 15 15 17 17 17 18 17 17 17 18 18 19 19 20 19 19 19 19 18 19 16 14 14 15 14 14 13 14 16 12 9 10 7 10 12 14 13 12 12 9 8
14 14 14 14 15 14 14 15 16 17 18 18 18 17 17 17 17 18 19 19 17 17 15 14 14 15 13 14 14 15 13 13 14 11 12 10 9 10 10 9 10 11 11 11 10 8 8
14 14 13 14 14 14 14 14 16 17 18 18 18 17 17 18 18 18 18 12 10 14 14 13 13 13 13 12 13 14 14 14 13 13 10 12 11 10 9 9 10 11 11 8 9 8 7
14 13 13 13 13 14 14 14 16 17 18 18 18 18 17 18 18 18 15 12 12 13 15 16 13 14 13 13 12 12 10 12 12 11 9 13 11 9 10 10 9 11 10 9 8 6 6
13 12 13 13 13 13 14 15 15 17 18 18 18 18 17 18 18 15 13 13 13 13 15 18 16 15 14 13 14 11 10 12 11 13 10 10 10 10 11 11 9 9 8 7 7 5 8
12 12 12 12 13 13 14 14 15 17 18 19 18 18 17 18 17 14 13 13 13 13 15 17 15 15 13 14 12 13 10 12 12 12 12 13 9 10 12 10 8 10 7 6 6 0 1
12 12 12 12 13 13 14 14 15 16 18 18 18 18 18 17 16 14 14 14 13 14 15 18 14 13 15 12 12 10 10 8 10 12 9 8 7 7 8 7 7 6 7 6 3 2 6
11 11 11 12 12 13 13 14 15 16 17 18 17 17 17 16 13 14 14 13 14 14 17 17 15 12 13 12 13 9 9 5 7 12 11 11 9 7 5 8 7 5 5 8 10 8 10
11 11 11 11 12 13 13 14 14 15 16 17 16 16 15 14 14 14 13 14 19 17 16 12 13 13 15 11 12 10 11 9 5 7 5 8 12 7 5 4 5 5 3 7 10 9 8
10 10 11 11 12 13 13 14 14 15 16 16 16 16 15 14 14 14 12 12 15 15 12 13 13 15 15 13 12 11 8 5 4 2 10 7 12 5 4 4 3 7 5 4 1 -3 2
10 10 11 11 12 12 13 14 14 15 15 16 16 15 14 14 14 14 11 13 13 10 11 12 16 13 15 12 14 12 11 4 5 2 1 7 8 8 4 4 3 3 2 6 1 7 8
10 10 10 11 12 12 13 13 14 14 15 16 15 12 14 14 14 8 9 9 11 9 10 12 13 13 9 11 12 11 10 8 6 4 3 -0 4 9 5 5 4 2 1 0 1 2 5
9 9 9 9 10 11 13 13 14 14 15 16 12 14 14 14 11 2 8 11 10 10 9 10 9 7 9 11 11 12 11 10 4 4 4 1 2 4 9 -3 -6 -2 1 0 9 9 5
9 9 9 9 9 11 12 13 13 14 14 14 8 8 14 14 8 8 8 10 10 10 10 10 11 10 8 11 10 10 11 6 4 5 2 2 5 9 10 3 -0 -0 -3 -4 3 5 7
9 9 9 9 9 10 12 13 13 14 14 14 6 10 8 4 3 6 11 12 12 8 10 10 10 9 10 10 8 9 11 6 4 5 7 6 5 10 13 12 6 6 3 0 6 7 7
10 10 9 9 9 9 11 12 13 14 14 13 4 5 5 6 8 9 10 9 12 12 8 8 9 9 7 9 11 8 8 7 5 6 5 5 6 4 6 7 7 9 9 7 4 8 9
10 10 10 10 10 10 10 11 12 13 14 13 7 6 5 5 6 10 8 11 11 11 8 10 9 11 7 7 10 11 10 9 10 4 5 3 5 4 4 6 6 5 6 5 6 4 4
10 10 11 10 10 9 10 10 10 12 14 11 7 7 5 6 6 6 8 11 10 10 10 10 9 10 7 8 9 9 10 10 9 5 4 2 3 4 10 5 5 7 5 6 -2 -7 0
9 10 10 10 10 10 9 9 10 10 10 10 9 8 6 7 4 7 10 9 10 10 9 11 8 9 8 6 6 7 6 5 6 6 4 3 3 4 6 6 8 7 -3 -1 1 -2 -2
8 8 7 7 8 8 8 8 8 9 9 9 8 8 6 7 7 8 8 8 9 9 9 9 8 4 4 6 7 8 8 7 3 1 3 4 4 5 6 6 7 8 2 0 2 4 -1
6 6 6 6 6 6 6 6 6 7 8 8 7 7 6 6 9 9 7 9 9 9 9 7 2 2 4 5 7 9 11 10 8 2 -1 1 2 5 2 5 7 5 5 2 -2 3 3
5 5 5 5 5 5 5 5 4 5 5 6 4 5 6 5 6 8 8 8 8 7 7 4 3 4 3 5 7 8 10 8 7 5 -2 -3 -0 3 4 5 4 4 4 1 4 5 0
4 4 4 4 4 4 3 3 3 3 4 5 4 4 5 2 3 5 6 6 5 4 7 3 4 1 2 5 6 4 5 3 3 2 -1 1 1 -0 2 2 3 2 3 5 6 4 3
3 3 3 3 3 3 3 3 3 3 2 3 4 3 3 3 2 4 4 5 6 6 4 1 4 0 2 1 2 3 6 3 1 6 0 5 4 2 3 4 5 2 5 6 4 4 2
Height
839 836 834 833 832 830 828 825 824 822 821 819 817 815 813 812 811 809 808 806 804 802 801 799 797 795 794 800 807 802 796 793 790 786 786 786 788 793 803 808 810 813 821 824 826 826 825
839 837 836 835 834 831 829 827 825 824 822 819 817 815 813 811 810 808 806 804 803 802 801 800 798 797 796 811 806 802 797 794 792 789 790 790 793 794 806 813 812 821 824 826 825 825 826
840 838 838 837 835 834 832 829 827 824 822 820 817 814 812 810 808 807 805 804 803 802 801 800 799 799 801 811 806 803 798 796 795 794 794 795 795 796 805 813 821 822 818 824 829 829 823
841 841 840 838 837 836 834 831 828 825 822 820 817 814 811 810 808 806 805 804 803 802 801 800 800 800 807 807 805 803 799 798 798 796 796 797 797 803 812 819 820 821 823 824 826 832 823
843 842 841 841 839 837 835 832 828 825 823 820 817 813 811 809 807 805 805 804 803 801 801 801 801 801 810 807 805 804 802 800 798 798 797 798 799 816 822 822 826 836 830 826 825 837 835
845 844 843 842 840 838 836 832 829 826 823 820 817 814 811 809 806 804 803 804 804 802 802 802 803 807 809 816 810 808 803 801 800 799 799 804 816 829 843 836 848 833 835 835 835 836 838
847 846 845 843 841 840 837 834 830 827 823 820 817 814 811 809 807 804 804 805 808 808 808 820 822 820 818 816 811 809 805 803 802 809 821 823 839 849 849 851 846 844 844 843 838 843 839
848 847 846 844 843 841 838 835 830 827 823 820 817 815 811 809 808 806 805 809 815 815 823 821 821 821 820 819 817 811 807 809 814 825 829 827 843 848 850 849 846 844 844 851 838 839 847
850 849 848 846 845 842 839 835 831 827 823 821 818 815 811 810 809 809 809 814 815 814 820 822 822 822 823 821 826 822 817 820 826 833 842 833 844 849 846 847 849 840 847 848 855 849 847
852 851 850 849 846 844 840 836 832 828 824 821 819 816 812 810 813 812 815 816 816 816 835 826 823 824 823 822 825 825 824 825 830 833 845 848 850 848 844 845 854 853 852 855 857 863 851
854 853 852 851 848 845 841 837 833 829 824 821 820 817 814 812 812 815 819 817 816 817 868 829 827 823 822 825 832 826 828 823 833 837 839 841 850 847 840 848 855 848 857 859 860 888 886
856 855 854 852 849 846 843 839 834 830 825 822 820 819 815 815 815 818 817 817 819 847 867 829 831 835 827 833 834 832 831 831 838 837 847 856 859 859 858 859 857 860 856 857 871 882 867
858 857 855 853 850 847 844 840 836 831 826 823 821 820 817 816 819 818 818 819 846 864 834 835 838 841 842 844 838 846 850 866 863 847 851 846 853 861 864 855 857 864 865 858 841 858 835
860 859 857 855 851 848 845 841 837 832 827 824 822 822 821 820 819 819 819 829 841 835 837 847 845 842 840 850 847 851 848 862 871 864 881 871 846 862 870 874 873 871 884 877 862 860 852
862 860 858 856 853 850 847 843 838 833 827 824 823 822 822 821 820 819 826 857 847 841 848 847 844 840 841 844 848 848 861 878 875 881 860 878 846 871 872 874 877 866 878 880 910 935 909
863 861 859 857 854 851 848 844 839 834 828 824 823 822 823 821 820 820 837 847 847 853 852 849 839 847 842 849 845 850 850 874 872 880 882 871 873 859 872 875 878 877 885 876 903 872 860
864 862 860 858 855 852 849 844 840 834 829 824 823 826 824 820 820 829 857 860 852 856 855 850 847 849 863 858 852 853 859 861 865 873 878 892 884 855 869 871 876 888 895 901 900 898 887
865 863 862 859 856 853 850 846 841 836 830 825 825 833 824 821 836 866 859 851 852 854 856 855 858 865 860 854 852 851 849 853 867 870 877 884 891 886 848 897 902 892 885 891 849 850 879
867 865 863 861 857 855 852 849 844 839 834 830 837 838 825 822 859 860 858 853 854 854 853 854 852 856 862 854 860 852 847 863 866 867 879 879 874 858 838 877 888 887 895 900 871 862 843
868 867 865 863 860 857 854 851 846 842 837 833 840 847 838 839 858 861 850 848 848 856 853 854 855 857 858 855 860 857 849 862 866 864 861 863 868 840 824 818 848 854 864 875 848 843 830
869 868 867 865 862 859 856 853 849 844 840 837 848 863 863 867 857 856 854 856 847 846 856 856 854 856 863 861 850 858 855 859 864 860 865 867 862 863 846 840 838 828 828 834 849 817 818
871 869 868 866 864 861 859 855 851 848 843 842 853 860 863 867 863 855 860 850 850 847 856 851 853 845 859 861 847 842 843 846 839 863 864 871 856 861 854 837 836 836 829 830 823 832 830
870 869 868 867 865 863 860 857 854 851 848 848 853 855 857 864 865 866 859 848 851 850 843 842 846 845 854 847 840 837 835 834 835 849 862 870 863 861 811 840 841 819 815 809 848 864 835
870 869 869 868 866 864 861 859 856 854 853 853 853 854 859 864 870 860 850 851 847 848 850 839 844 845 842 841 840 838 838 839 838 839 846 858 862 855 836 833 816 793 827 820 819 828 827
870 870 869 868 866 864 863 861 858 857 855 855 855 854 856 858 854 851 849 848 845 842 843 838 839 843 843 842 840 832 827 834 846 855 849 850 853 844 835 832 805 790 808 818 813 802 806
871 870 870 869 867 865 864 862 860 858 857 856 855 855 855 857 845 844 847 842 842 838 838 840 847 846 845 845 841 824 809 808 820 853 864 858 856 845 857 837 814 801 796 803 813 810 794
872 872 872 871 869 867 865 863 862 860 859 858 857 857 856 858 846 844 844 842 840 844 843 847 847 847 849 843 836 825 806 810 819 829 873 877 867 847 839 831 821 796 797 806 808 797 796
874 873 872 872 871 869 868 866 864 862 860 859 858 857 858 858 847 841 840 840 842 845 839 846 847 851 852 844 837 841 834 833 832 837 851 845 853 861 849 845 832 796 800 795 783 783 785
876 875 875 874 872 870 869 867 865 863 862 860 860 858 857 856 848 841 838 838 838 838 843 844 836 842 837 846 842 838 824 831 837 816 836 822 816 827 822 806 785 790 781 778 779 780 784
Wind_Speed
9 11 12 12 12 12 13 13 12 12 10 11 10 9 9 9 9 9 8 8 8 8 8 8 12 11 3 7 3 19 21 14 9 8 9 3 4 3 5 4 3 4 2 3 2 3 2
10 12 13 13 15 15 16 15 14 12 12 13 11 10 9 8 9 10 8 8 7 5 6 6 8 11 4 6 9 19 15 12 17 15 13 10 4 4 7 4 4 2 4 3 3 2 0
11 12 13 13 14 15 16 16 16 14 12 13 13 11 10 8 10 8 6 6 6 5 5 6 6 3 8 1 7 20 12 12 13 12 4 9 3 5 2 4 3 5 3 2 5 5 1
11 11 12 13 14 14 15 17 17 16 14 12 15 12 10 8 11 6 3 5 7 5 5 5 6 3 3 4 7 21 16 4 8 9 6 5 7 8 5 2 4 4 4 4 1 7 3
10 11 12 13 13 14 16 18 18 18 15 13 16 13 10 8 11 9 4 4 10 1 2 6 3 3 2 5 7 18 14 7 6 5 10 5 6 5 6 3 4 7 1 3 7 4 4
9 10 11 12 14 15 17 19 18 18 17 15 14 15 12 9 12 9 4 4 3 3 3 2 4 3 6 6 10 18 14 8 4 3 3 9 6 5 5 6 1 3 4 4 5 5 4
9 10 11 13 14 16 18 21 21 20 18 16 14 17 14 8 16 4 1 1 4 4 15 5 1 1 5 14 4 18 14 5 4 10 5 6 9 4 3 3 2 1 2 4 5 2 5
9 10 11 13 14 16 20 22 23 21 19 17 14 17 14 5 10 4 3 6 2 3 6 2 1 3 2 6 6 11 16 6 7 5 6 6 3 1 2 1 2 3 3 5 6 1 2
9 10 12 14 15 18 21 24 24 23 20 16 14 16 12 4 5 11 13 7 5 2 5 3 2 2 4 5 2 9 8 2 6 6 7 6 0 2 0 2 6 1 2 2 5 9 1
8 10 12 13 16 18 21 24 26 25 21 15 13 17 11 2 2 4 4 4 3 2 4 5 5 4 2 1 4 3 7 2 6 3 3 5 2 1 0 2 1 4 1 1 5 5 3
8 9 11 13 16 18 21 24 26 27 22 13 10 18 8 10 3 4 1 2 1 1 3 3 5 4 3 6 4 6 7 5 4 3 1 2 4 4 3 2 1 5 2 3 1 3 3
8 9 10 13 15 18 21 24 27 29 22 14 8 15 10 4 8 4 2 1 1 6 4 2 2 6 4 6 7 7 6 10 2 2 5 2 1 3 2 2 2 4 2 1 3 2 3
7 9 11 13 15 17 21 24 27 29 25 15 7 11 14 9 3 4 2 2 5 5 2 3 3 5 1 6 5 9 6 8 3 5 7 3 2 1 3 3 1 6 5 4 6 4 4
7 9 11 13 15 17 21 24 27 29 28 15 4 6 12 12 7 4 2 5 2 2 2 2 2 3 3 6 4 7 2 3 2 2 3 3 6 4 5 3 3 4 4 4 4 3 5
7 9 12 13 16 18 21 24 27 29 30 15 3 2 6 14 6 3 5 4 4 1 1 4 2 3 3 1 0 4 3 3 3 1 4 3 5 1 3 2 2 0 2 2 5 1 3
7 9 11 13 15 17 20 23 27 29 31 15 3 1 5 15 5 2 5 3 1 1 0 0 1 2 2 4 4 5 1 3 2 2 2 2 4 1 2 2 3 3 2 3 3 2 5
7 9 12 14 15 18 20 23 26 29 31 14 2 3 7 13 3 5 3 3 1 1 1 3 1 1 1 2 1 2 2 2 3 4 3 3 3 2 1 4 5 2 2 4 3 3 4
7 11 15 17 17 18 19 22 26 29 30 13 3 2 9 8 4 2 2 1 1 2 1 1 3 3 2 1 2 3 4 5 5 7 4 3 5 3 7 1 2 2 5 4 3 3 2
9 11 14 16 17 18 19 21 24 27 28 8 2 2 6 4 3 2 2 0 1 2 1 1 1 2 3 3 2 3 3 2 5 5 5 5 1 4 4 3 3 3 4 3 1 2 9
8 10 12 15 16 17 19 20 22 25 24 7 3 3 4 5 1 5 1 0 1 1 1 2 1 1 2 3 5 3 3 3 5 4 5 6 3 9 13 10 4 3 6 7 5 4 7
7 9 11 13 15 18 20 20 19 22 21 5 4 0 2 3 4 3 2 1 1 2 2 3 2 6 6 2 2 6 4 2 4 5 3 3 6 6 14 14 10 14 15 12 14 18 13
7 8 8 11 13 18 19 20 19 19 18 8 2 3 1 1 3 3 2 2 3 2 4 3 4 4 7 6 9 9 6 5 6 3 6 1 4 1 5 15 15 14 17 20 22 16 18
6 6 8 10 13 16 18 17 18 19 14 6 3 2 4 2 2 2 2 2 2 0 5 5 8 3 4 12 8 7 5 4 4 9 9 6 4 2 8 2 5 10 13 14 2 3 6
2 7 9 11 13 15 16 17 17 16 14 5 2 1 3 4 1 4 3 5 5 5 6 4 4 5 3 4 5 4 4 6 6 7 9 6 3 2 5 3 6 6 3 5 8 7 14
4 8 9 10 12 14 15 15 15 14 11 7 4 2 2 3 5 4 8 7 6 7 5 6 2 0 4 3 3 5 3 2 1 5 0 1 3 3 3 3 9 7 2 5 6 6 8
7 8 10 11 12 12 14 15 15 14 12 5 4 2 1 2 5 3 2 2 4 5 4 2 1 4 2 1 1 3 6 4 3 2 5 3 1 4 2 4 6 5 1 4 4 4 2
10 10 11 11 12 13 14 15 15 16 15 9 4 3 1 0 4 1 4 2 0 1 3 2 2 1 2 2 4 5 6 3 4 5 4 2 1 7 9 5 9 8 4 3 4 5 4
10 10 10 11 12 13 14 14 14 15 16 13 3 3 1 2 6 4 3 5 1 2 4 2 3 1 1 3 3 3 2 4 1 4 7 8 8 5 3 4 10 7 4 5 3 1 3
9 10 11 11 12 14 14 15 15 15 15 15 3 7 5 4 6 8 12 12 11 10 3 4 4 5 5 2 2 2 3 2 4 5 3 3 7 5 10 8 4 7 5 4 1 5 3
Wind_Direction
48 44 42 41 39 35 29 26 23 16 7 359 353 345 334 326 329 328 325 330 337 344 347 350 9 15 28 44 343 339 349 2 11 29 41 25 55 99 94 93 70 74 131 67 99 78 92
56 50 48 45 44 38 33 29 25 17 14 6 356 348 345 338 329 327 330 325 330 350 357 3 2 17 51 61 336 351 358 20 29 40 34 29 62 96 94 66 65 103 91 105 48 26 315
63 57 53 49 42 37 31 26 20 14 7 8 3 354 345 339 340 341 5 22 42 26 12 5 4 44 63 99 355 5 9 26 26 35 45 35 53 68 128 83 155 131 68 131 24 334 233
68 60 53 46 38 30 24 20 16 13 6 2 3 357 354 351 353 341 15 26 360 340 9 4 18 45 101 351 359 5 14 17 29 49 72 43 61 97 56 137 38 50 57 11 41 359 335
71 60 49 40 31 25 23 16 14 14 8 359 2 2 356 353 351 323 268 336 0 56 21 23 23 41 11 343 7 358 358 352 345 56 49 54 64 75 29 50 26 14 357 344 322 56 314
70 59 49 37 30 30 21 17 14 11 6 2 359 3 358 347 342 331 286 259 41 35 3 18 41 37 24 318 319 347 352 358 10 331 35 38 48 64 28 38 203 309 337 317 253 334 347
68 57 46 39 36 26 23 18 12 9 6 2 358 360 359 349 357 0 40 141 19 356 39 71 351 12 328 326 322 355 352 343 24 55 36 14 60 44 333 359 349 287 261 266 260 25 332
69 54 47 43 34 29 25 19 12 7 4 1 0 359 358 349 12 23 56 73 75 139 83 24 275 324 327 347 1 340 6 56 47 44 334 29 64 300 279 276 269 222 285 278 282 185 355
67 55 50 41 35 30 24 18 13 8 2 0 3 1 4 3 20 45 74 90 92 81 85 10 45 23 324 9 73 322 17 39 65 52 19 99 162 290 169 33 5 254 213 302 255 322 226
67 57 51 40 36 29 23 18 12 8 3 2 7 6 13 14 69 48 54 61 48 69 71 326 347 9 339 51 42 330 11 84 35 101 78 89 318 8 59 74 19 305 91 302 287 15 279
65 58 48 38 34 28 22 17 12 8 5 5 9 10 19 42 87 62 77 23 16 56 33 312 327 319 352 70 308 6 31 24 69 61 98 312 8 8 33 5 33 268 330 287 74 81 31
65 56 42 35 30 25 19 16 12 9 8 7 8 12 17 26 53 61 44 22 353 44 261 355 324 345 16 19 2 312 27 38 122 97 44 86 28 47 315 301 240 314 306 105 58 92 15
60 47 37 29 25 22 16 13 10 9 6 5 23 24 36 44 37 11 8 27 38 123 357 335 340 21 55 346 0 27 26 12 58 41 8 348 53 60 17 337 186 27 32 337 351 4 232
50 38 30 23 21 17 13 11 8 6 4 1 28 31 35 38 20 10 2 53 120 170 234 15 352 325 48 4 25 6 55 37 81 49 76 61 329 23 358 115 195 43 125 143 263 288 292
43 31 24 16 16 14 11 8 6 5 2 356 343 356 30 1 4 13 72 57 225 166 25 358 312 32 358 27 313 39 55 188 232 110 127 62 277 142 55 120 105 145 47 181 100 80 31
38 24 15 10 13 13 9 7 4 3 359 357 350 58 21 357 359 71 73 205 149 23 56 353 71 51 313 311 354 28 338 227 209 176 163 204 316 102 113 118 49 114 161 38 11 343 298
36 19 7 8 19 16 11 8 4 2 359 357 13 43 358 353 35 49 127 207 191 14 0 27 162 276 225 298 305 292 243 231 194 147 92 129 111 266 133 188 185 33 7 40 118 125 200
32 19 12 8 19 14 13 9 6 2 2 360 41 14 355 360 43 34 99 175 147 172 26 71 92 133 205 180 263 262 243 217 156 152 163 209 152 263 246 312 201 122 202 154 134 229 220
30 17 11 8 11 12 12 8 5 4 4 353 67 277 353 11 90 19 265 219 204 150 223 158 208 205 199 231 334 221 247 94 157 157 174 193 238 309 287 353 8 190 197 179 83 49 211
22 13 6 7 7 12 8 7 7 7 4 13 64 10 340 46 53 116 102 190 252 152 209 179 178 134 168 239 215 276 255 195 196 211 193 169 200 212 257 254 140 205 196 207 199 211 262
6 2 4 7 3 4 3 3 7 7 6 23 28 205 174 327 356 47 44 306 249 254 236 203 211 218 177 213 249 230 233 197 191 215 151 201 235 213 252 276 275 261 262 231 210 241 248
354 352 1 3 358 354 358 2 7 12 10 59 82 91 30 325 320 343 7 236 221 273 155 231 213 182 183 190 207 254 210 202 216 128 165 102 270 277 255 247 253 265 257 246 245 249 264
334 351 358 352 348 349 351 358 3 10 24 60 66 105 105 311 27 67 237 276 252 172 238 217 210 179 205 235 247 256 247 247 223 156 185 181 219 190 281 18 298 271 240 236 177 228 172
309 336 334 342 341 339 342 350 357 7 22 30 66 93 77 276 129 200 234 210 245 230 241 283 174 182 274 324 289 262 250 243 207 203 165 169 176 208 291 325 255 247 208 165 179 214 214
321 334 348 348 348 351 350 352 355 360 10 14 9 354 119 248 228 253 246 239 261 257 237 237 202 234 318 342 313 296 257 277 95 39 174 199 149 255 259 221 305 287 235 145 162 270 209
33 27 17 9 5 6 7 6 4 359 359 359 20 11 94 109 235 289 268 259 267 268 273 202 359 327 331 117 210 241 237 220 211 182 14 76 44 208 134 248 264 245 142 157 128 289 115
41 30 21 17 17 14 14 14 14 12 12 6 1 35 269 182 274 229 238 253 82 2 266 297 315 352 6 192 228 235 252 192 236 192 175 98 187 221 235 266 281 254 177 159 96 246 188
42 32 27 21 20 20 16 15 14 12 9 10 359 9 303 239 279 236 233 214 242 167 242 205 354 328 73 207 237 250 252 247 347 155 181 171 167 205 180 217 274 152 121 187 224 253 203
41 37 29 23 19 19 18 17 14 10 6 6 11 354 326 223 254 276 261 262 254 237 172 216 215 178 204 131 219 277 247 210 211 270 51 252 198 196 191 216 242 206 227 233 193 253 169